Location: Unspecified
(41.1637°N, 24.2901°E)
Time: 23:32:15
(UTC+01:00)

ISS - Pass Details

Date: 15 November 2019
Orbit: 412 x 421 km, 51.6° (Epoch: 15 November)

Event Time Altitude Azimuth Distance (km) Brightness Sun altitude
Exits shadow 04:16:48 11° 183° (S) 1,427 -1.0 -21.3°
Drops below altitude 10° 04:17:01 10° 180° (S) 1,492 -0.9 -21.3°
Sets 04:19:29 0° 162° (SSE) 2,349 0.4 -20.8°
